Total_Precipitation_Accumulation
0.01 0.00 0.00 0.03 0.02 0.00 0.00 0.00 0.00 0.00 0.02 0.03 0.01 0.02 0.07 0.12 0.04 0.10 0.03 0.04 0.01 0.03 0.12 0.21 0.35 0.25 0.22 0.16 0.12 0.12 0.15 0.22 0.29 0.41 0.46 0.43 0.31 0.20 0.15 0.23 0.25 0.25 0.37 0.42 0.32 0.40 0.22 0.06 0.02
0.00 0.01 0.05 0.11 0.03 0.00 0.00 0.00 0.00 0.00 0.00 0.00 0.03 0.08 0.12 0.28 0.07 0.03 0.07 0.05 0.03 0.04 0.14 0.14 0.34 0.38 0.28 0.16 0.14 0.11 0.15 0.18 0.20 0.24 0.35 0.46 0.42 0.32 0.16 0.18 0.19 0.26 0.36 0.43 0.20 0.21 0.23 0.19 0.10
0.07 0.15 0.20 0.10 0.02 0.00 0.00 0.00 0.00 0.00 0.00 0.03 0.07 0.06 0.26 0.39 0.13 0.03 0.04 0.04 0.06 0.07 0.16 0.22 0.43 0.42 0.36 0.24 0.14 0.21 0.19 0.18 0.19 0.23 0.40 0.54 0.52 0.32 0.21 0.16 0.16 0.24 0.38 0.47 0.13 0.15 0.21 0.23 0.13
0.07 0.41 0.30 0.10 0.03 0.00 0.00 0.00 0.00 0.00 0.00 0.01 0.01 0.04 0.34 0.81 0.54 0.26 0.05 0.03 0.07 0.08 0.14 0.21 0.47 0.47 0.36 0.31 0.28 0.25 0.23 0.26 0.24 0.32 0.54 0.65 0.70 0.42 0.26 0.25 0.20 0.17 0.22 0.30 0.16 0.11 0.10 0.14 0.06
0.22 0.41 0.21 0.10 0.02 0.00 0.00 0.00 0.00 0.00 0.00 0.00 0.01 0.03 0.23 0.60 0.59 0.60 0.44 0.11 0.11 0.11 0.18 0.24 0.49 0.40 0.28 0.28 0.33 0.29 0.30 0.32 0.25 0.31 0.58 0.67 0.58 0.73 0.52 0.43 0.25 0.15 0.22 0.45 0.42 0.16 0.13 0.12 0.09
0.42 0.41 0.15 0.06 0.00 0.00 0.00 0.00 0.00 0.00 0.00 0.00 0.00 0.02 0.13 0.32 0.69 1.06 1.22 0.74 0.49 0.35 0.37 0.33 0.46 0.49 0.26 0.21 0.23 0.22 0.25 0.31 0.27 0.33 0.68 0.85 0.55 0.53 0.54 0.49 0.26 0.18 0.20 0.45 0.43 0.25 0.11 0.11 0.18
0.34 0.28 0.13 0.01 0.00 0.00 0.01 0.02 0.01 0.00 0.00 0.00 0.00 0.07 0.20 0.30 0.46 0.87 1.92 1.97 1.30 1.04 0.94 0.64 0.47 0.41 0.19 0.14 0.12 0.11 0.12 0.19 0.21 0.29 0.55 0.65 0.43 0.41 0.38 0.43 0.30 0.25 0.24 0.36 0.34 0.35 0.18 0.12 0.21
0.31 0.37 0.16 0.04 0.00 0.01 0.00 0.03 0.02 0.00 0.00 0.01 0.02 0.12 0.19 0.10 0.32 0.73 1.70 2.95 2.27 1.50 1.52 1.17 1.04 0.56 0.21 0.21 0.14 0.05 0.07 0.15 0.12 0.22 0.39 0.21 0.17 0.10 0.15 0.16 0.25 0.38 0.34 0.33 0.33 0.30 0.29 0.25 0.24
0.70 0.92 0.44 0.10 0.04 0.04 0.00 0.00 0.02 0.01 0.00 0.01 0.01 0.05 0.04 0.11 0.59 0.68 1.56 2.53 2.91 1.98 1.57 1.37 1.13 0.79 0.32 0.26 0.24 0.07 0.03 0.05 0.07 0.17 0.32 0.18 0.07 0.03 0.02 0.01 0.04 0.14 0.25 0.31 0.31 0.30 0.18 0.15 0.10
1.09 0.91 0.30 0.07 0.07 0.07 0.02 0.00 0.01 0.01 0.02 0.06 0.14 0.12 0.06 0.19 0.58 0.59 0.85 1.59 2.44 1.84 1.79 2.02 1.54 1.38 0.58 0.41 0.46 0.23 0.08 0.02 0.01 0.10 0.20 0.12 0.09 0.04 0.03 0.02 0.02 0.07 0.16 0.18 0.24 0.28 0.11 0.01 0.00
0.78 0.46 0.05 0.04 0.17 0.25 0.15 0.02 0.02 0.02 0.05 0.01 0.07 0.12 0.12 0.30 0.59 0.58 0.32 0.43 1.09 1.73 1.46 1.49 1.55 2.00 1.13 0.79 0.61 0.42 0.17 0.11 0.02 0.03 0.21 0.18 0.08 0.05 0.02 0.02 0.03 0.11 0.08 0.11 0.08 0.08 0.02 0.00 0.01
0.45 0.12 0.10 0.15 0.19 0.31 0.21 0.12 0.11 0.09 0.02 0.01 0.05 0.16 0.24 0.23 0.53 0.64 0.42 0.31 0.40 0.70 1.55 1.76 1.44 1.67 1.70 1.54 1.08 0.54 0.28 0.14 0.09 0.04 0.08 0.26 0.18 0.18 0.16 0.07 0.08 0.12 0.08 0.12 0.11 0.08 0.02 0.01 0.02
0.31 0.19 0.19 0.27 0.27 0.20 0.22 0.36 0.14 0.05 0.03 0.04 0.11 0.24 0.22 0.28 0.38 0.52 0.76 0.48 0.46 0.41 0.74 0.94 1.20 1.62 1.82 1.39 1.45 1.17 0.49 0.19 0.07 0.07 0.11 0.22 0.35 0.34 0.26 0.27 0.27 0.22 0.16 0.12 0.13 0.16 0.18 0.14 0.09
0.10 0.35 0.43 0.54 0.43 0.50 0.39 0.32 0.30 0.08 0.07 0.18 0.26 0.32 0.23 0.21 0.29 0.40 0.55 0.54 0.46 0.47 0.54 0.52 0.56 0.92 1.45 1.21 0.68 1.36 1.59 0.76 0.15 0.03 0.05 0.12 0.26 0.39 0.49 0.42 0.41 0.31 0.25 0.23 0.23 0.33 0.35 0.30 0.21
0.18 0.53 0.72 0.68 0.60 0.55 0.63 0.52 0.36 0.15 0.13 0.20 0.29 0.42 0.54 0.32 0.34 0.30 0.42 0.34 0.25 0.35 0.40 0.25 0.33 0.41 0.60 1.18 0.70 0.50 1.02 1.48 0.79 0.17 0.15 0.12 0.17 0.27 0.33 0.53 0.54 0.43 0.44 0.61 0.67 0.80 0.70 0.58 0.39
0.29 0.53 0.89 0.57 0.75 0.71 0.89 0.58 0.16 0.23 0.23 0.21 0.22 0.33 0.58 0.50 0.34 0.34 0.35 0.32 0.25 0.26 0.18 0.22 0.23 0.27 0.22 0.32 0.59 0.48 0.54 0.71 0.89 0.47 0.16 0.12 0.12 0.16 0.25 0.21 0.24 0.38 0.50 0.57 0.55 0.62 0.77 0.79 0.72
0.41 0.37 0.50 0.62 0.65 0.93 0.89 0.55 0.34 0.20 0.20 0.14 0.19 0.17 0.26 0.67 0.69 0.65 0.41 0.20 0.23 0.31 0.37 0.32 0.34 0.36 0.33 0.32 0.45 0.56 0.54 0.37 0.54 0.64 0.30 0.14 0.14 0.15 0.20 0.24 0.29 0.35 0.39 0.43 0.48 0.61 0.65 0.74 0.66
0.20 0.15 0.25 0.49 0.46 0.88 0.76 0.65 0.56 0.29 0.13 0.13 0.11 0.10 0.09 0.20 0.76 0.82 0.53 0.42 0.36 0.31 0.45 0.43 0.42 0.44 0.64 0.76 0.89 0.91 0.73 0.42 0.67 0.65 0.53 0.39 0.17 0.16 0.25 0.25 0.28 0.36 0.35 0.34 0.39 0.47 0.53 0.51 0.51
0.22 0.15 0.19 0.25 0.28 0.61 0.68 0.39 0.51 0.53 0.27 0.19 0.16 0.06 0.04 0.07 0.45 1.43 1.12 0.97 0.88 0.71 0.62 0.66 0.62 0.48 0.79 0.90 0.80 0.63 0.53 0.47 0.46 0.64 0.75 0.79 0.58 0.40 0.29 0.26 0.22 0.20 0.17 0.18 0.23 0.33 0.35 0.28 0.41
0.28 0.21 0.28 0.35 0.58 0.57 0.66 0.50 0.33 0.55 0.38 0.29 0.27 0.14 0.07 0.05 0.14 0.99 1.36 1.51 1.02 0.81 0.97 0.77 0.72 0.84 0.77 0.95 0.98 0.97 0.92 0.87 0.78 0.96 0.87 0.89 0.81 0.78 0.67 0.49 0.43 0.32 0.32 0.29 0.24 0.25 0.28 0.28 0.47
0.33 0.28 0.24 0.54 0.50 0.56 0.63 0.61 0.25 0.22 0.24 0.25 0.27 0.38 0.16 0.10 0.05 0.27 0.88 1.32 1.32 1.05 1.06 1.18 1.07 1.08 0.98 1.25 1.65 1.73 1.72 1.48 1.29 0.94 0.93 1.08 1.09 1.28 1.33 1.23 1.19 1.11 0.87 0.65 0.62 0.53 0.52 0.54 0.51
0.35 0.24 0.33 0.51 0.69 0.56 0.39 0.46 0.14 0.09 0.16 0.21 0.14 0.33 0.33 0.18 0.13 0.19 0.40 0.87 0.92 0.95 0.86 0.94 1.30 1.41 1.55 1.47 1.73 1.96 2.17 2.17 1.91 2.21 2.04 1.80 1.71 1.82 2.19 2.32 2.17 2.01 1.64 1.55 1.66 1.67 1.48 1.46 1.13
0.31 0.27 0.33 0.44 0.60 0.54 0.27 0.43 0.10 0.09 0.08 0.08 0.10 0.12 0.39 0.44 0.45 0.38 0.31 0.38 0.59 0.65 0.74 0.73 1.01 1.33 2.04 1.95 2.30 2.83 2.42 2.36 2.23 2.15 2.44 2.20 2.19 2.07 2.00 2.29 2.74 2.77 2.89 2.57 2.23 2.23 2.22 2.12 2.09
0.66 0.62 0.58 0.38 0.49 0.75 0.42 0.29 0.13 0.10 0.11 0.16 0.28 0.16 0.32 0.66 0.78 0.75 0.60 0.50 0.31 0.42 0.55 0.63 0.70 1.05 1.58 2.64 2.91 3.03 3.39 2.91 2.70 2.83 2.69 2.95 2.45 2.17 1.97 2.42 2.67 2.93 2.64 2.42 2.55 2.46 2.20 2.03 1.76
0.47 0.70 0.97 0.89 0.93 0.43 0.29 0.54 0.25 0.01 0.05 0.14 0.35 0.11 0.17 0.53 0.58 0.84 0.65 0.36 0.33 0.28 0.34 0.35 0.42 0.55 0.92 1.39 1.89 1.84 2.22 2.18 2.11 2.02 2.29 2.37 2.33 2.00 2.00 1.59 1.94 2.12 2.30 2.51 2.23 2.04 1.88 1.91 2.06
0.14 0.38 0.84 0.73 0.50 0.35 0.52 0.71 0.35 0.05 0.03 0.12 0.28 0.12 0.10 0.38 0.45 0.60 0.52 0.36 0.31 0.36 0.26 0.22 0.29 0.33 0.43 0.90 1.32 1.52 1.45 1.46 1.55 1.54 1.51 1.45 1.41 1.37 1.37 1.41 1.25 1.27 1.40 1.61 1.73 1.58 1.44 1.36 1.35
0.36 0.41 0.25 0.51 0.45 0.71 0.52 0.56 0.54 0.28 0.05 0.19 0.26 0.22 0.19 0.27 0.44 0.48 0.57 0.57 0.25 0.27 0.19 0.10 0.11 0.15 0.15 0.28 0.41 0.67 0.89 0.96 0.84 0.88 0.78 0.78 0.95 1.05 1.12 1.22 1.32 1.26 1.29 1.35 1.36 1.31 1.22 1.16 1.01
0.20 0.13 0.21 0.54 0.50 0.45 0.28 0.20 0.62 0.51 0.50 0.46 0.36 0.33 0.29 0.42 0.72 0.77 0.96 0.90 0.38 0.24 0.19 0.15 0.11 0.08 0.11 0.16 0.13 0.20 0.32 0.52 0.68 0.65 0.61 0.43 0.51 0.70 1.21 1.17 0.88 0.89 0.94 1.13 1.41 1.40 1.22 1.19 1.18
0.05 0.17 0.14 0.17 0.13 0.17 0.11 0.34 0.66 0.59 0.67 0.58 0.47 0.66 0.74 0.86 0.91 0.81 0.78 0.87 0.54 0.26 0.25 0.20 0.19 0.19 0.16 0.13 0.07 0.07 0.18 0.27 0.25 0.24 0.32 0.34 0.36 0.46 0.72 1.00 1.16 1.04 0.89 0.87 0.93 0.94 1.03 1.22 1.24
0.06 0.02 0.06 0.22 0.07 0.12 0.13 0.25 0.39 0.44 0.51 0.61 0.62 0.78 0.88 0.99 0.96 0.98 0.86 0.81 0.70 0.42 0.32 0.23 0.14 0.15 0.10 0.08 0.04 0.04 0.06 0.06 0.08 0.07 0.07 0.06 0.05 0.06 0.09 0.14 0.22 0.30 0.47 0.60 0.62 0.64 0.68 0.74 0.82